Regional Weather Roundup
Issued by NWS

Home | Current Version | Previous Version | Text Only | Print | Product List | Glossary On
Versions: 1 2 3 4 5 6 7 8 9 10 11 12 13 14 15 16 17 18 19 20 21 22 23 24 25 26 27 28 29 30 31 32 33 34 35 36 37 38 39 40 41 42 43 44 45 46 47 48 49 50
000
ASUS43 KLSX 061810
RWRMO

WEATHER SUMMARY FOR MISSOURI
NATIONAL WEATHER SERVICE SPRINGFIELD MO
100 PM CDT FRI MAY 06 2016

NOTE: "FAIR" INDICATES FEW OR NO CLOUDS BELOW 12,000 FEET WITH NO
       SIGNIFICANT WEATHER AND/OR OBSTRUCTIONS TO VISIBILITY.
       CURRENT SKY AND/OR WEATHER CONDITIONS ARE NOT AVAILABLE FOR
       CHILLICOTHE AND FARMINGTON.

MOZ001>031-035>038-043-044-053-054-061900-
...NORTHERN AND WESTERN MISSOURI...

CITY           SKY/WX    TMP DP  RH WIND       PRES   REMARKS
KANSAS CTY INT MOSUNNY   77  51  40 SW13      30.06F
6HR MIN TEMP:  50; 6HR MAX TEMP:  77;

KANSAS C DTWN  SUNNY     79  47  32 SW8       30.05F
6HR MIN TEMP:  52; 6HR MAX TEMP:  79;

LEE`S SUMMIT   SUNNY     77  46  33 SW12      30.08F
6HR MIN TEMP:  54; 6HR MAX TEMP:  77;

ST JOSEPH      SUNNY     80  49  33 SW12      30.04F
6HR MIN TEMP:  50; 6HR MAX TEMP:  80;

CHILLICOTHE      N/A     79  51  37 VRB6      30.05F
6HR MIN TEMP:  46; 6HR MAX TEMP:  79;

KIRKSVILLE     SUNNY     79  46  31 SW10      30.04F
6HR MIN TEMP:  53; 6HR MAX TEMP:  79;


$$
MOZ066>068-077>081-088>096-101>105-061900-
...SOUTHWEST MISSOURI...

CITY           SKY/WX    TMP DP  RH WIND       PRES   REMARKS
SPRINGFIELD    SUNNY     74  40  29 SW5       30.12S
6HR MIN TEMP:  44; 6HR MAX TEMP:  75;

JOPLIN         SUNNY     74  47  38 SW7       30.12F
6HR MIN TEMP:  46; 6HR MAX TEMP:  75;

BRANSON        SUNNY     72  39  30 CALM      30.13F

$$
MOZ032>034-039>042-045>050-055>058-069>072-061900-
...CENTRAL MISSOURI...

CITY           SKY/WX    TMP DP  RH WIND       PRES   REMARKS
COLUMBIA       SUNNY     75  46  35 W6        30.07F
6HR MIN TEMP:  48; 6HR MAX TEMP:  75;

JEFFERSON CITY SUNNY     75  42  30 W8        30.06F
6HR MIN TEMP:  42; 6HR MAX TEMP:  75;

ROLLA          SUNNY     71  46  40 S5        30.07F
6HR MIN TEMP:  45; 6HR MAX TEMP:  71;

SEDALIA        SUNNY     77  44  30 SW6       30.09F
6HR MIN TEMP:  51; 6HR MAX TEMP:  77;

WHITEMAN AFB   MOSUNNY   76  47  35 SW10      30.07F
WARRENSBURG    SUNNY     73  45  35 SW12      30.08F
OSAGE BEACH    SUNNY     73  39  29 W5        30.10F

$$
MOZ051-052-059>065-061900-
...EAST CENTRAL MISSOURI...

CITY           SKY/WX    TMP DP  RH WIND       PRES   REMARKS
ST LOUIS INTL  SUNNY     75  40  28 W8        30.05F
6HR MIN TEMP:  51; 6HR MAX TEMP:  76;

SPIRIT OF STL  SUNNY     73  44  35 SW7       30.04F
6HR MIN TEMP:  45; 6HR MAX TEMP:  73;

ST CHARLES     SUNNY     74  41  30 W8        30.03F
6HR MIN TEMP:  47; 6HR MAX TEMP:  74;


$$
MOZ072>076-082>087-097>100-106>115-061900-
...SOUTH CENTRAL AND SOUTHEAST MISSOURI...

CITY           SKY/WX    TMP DP  RH WIND       PRES   REMARKS
CAPE GIRARDEAU SUNNY     71  43  36 W9        30.06F
6HR MIN TEMP:  46; 6HR MAX TEMP:  71;

FARMINGTON     SUNNY     70  42  36 NE7       30.08F
6HR MIN TEMP:  42; 6HR MAX TEMP:  70;

POPLAR BLUFF   SUNNY     72  41  32 VRB6      30.07F
6HR MIN TEMP:  48; 6HR MAX TEMP:  72;

WEST PLAINS    SUNNY     72  43  35 VRB7      30.12F
6HR MIN TEMP:  49; 6HR MAX TEMP:  72;


$$




USA.gov is the U.S. government's official web portal to all federal, state and local government web resources and services.